Palacios, TX

7:58 PM CDT on March 27, 2017 (GMT -0500)
Palacios Municipal

Weather History for KPSX - December, 2014

Change the Weather History Date:

Thursday, December 4, 2014

  Actual Average Record
Temperature  
Mean Temperature 66 °F -  
Max Temperature 73 °F 67 °F 83 °F (1992)
Min Temperature 59 °F 47 °F 31 °F (1991)
Cooling Degree Days 1    
Growing Degree Days 16 (Base 50)    
Moisture  
Dew Point 64 °F    
Average Humidity 93    
Maximum Humidity 97    
Minimum Humidity 81    
Precipitation  
Precipitation 0.00 in - - ()
Sea Level Pressure  
Sea Level Pressure 30.11 in    
Wind  
Wind Speed 10 mph (East)    
Max Wind Speed 16 mph    
Max Gust Speed 20 mph    
Visibility 6 miles    
Events Rain    
Averages and records for this station are not official NWS values.
T = Trace of Precipitation, MM = Missing Value Source: NWS Daily Summary

Daily Weather History Graph

Daily Weather History Graph

Search for Another Location

Airport or City:

Trip Planner

Search our weather history database for the weather conditions in past years. The results will help you decide how hot, cold, wet, or windy it might be!

Date:

Astronomy

Dec. 04, 2014 Rise Set
Actual Time 7:02 AM CST 5:27 PM CST
Civil Twilight 6:37 AM CST 5:53 PM CST
Nautical Twilight 6:07 AM CST 6:22 PM CST
Astronomical Twilight 5:39 AM CST 6:51 PM CST
Moon 4:22 PM CST (12/4) 5:04 AM CST (12/4)
Length of Visible Light 11h 16m
Length of Day
10h 24m
Waxing Gibbous, 97% of the Moon is Illuminated
Dec 4
Waxing Gibbous
Dec 6
Full
Dec 14
Last Quarter
Dec 21
New
Dec 28
First Quarter

Hourly Weather History & Observations

Time (CST) Temp. Dew Point Humidity Pressure Visibility Wind Dir Wind Speed Gust Speed Precip Events Conditions
12:53 AM 59.0 °F 57.0 °F 93% 30.15 in 3.0 mi ENE 6.9 mph - N/A   Partly Cloudy
1:53 AM 59.0 °F 57.9 °F 96% 30.14 in 3.0 mi ENE 9.2 mph - N/A   Overcast
2:53 AM 61.0 °F 60.1 °F 97% 30.13 in 4.0 mi East 9.2 mph - N/A   Overcast
3:16 AM 62.1 °F 60.1 °F 93% 30.13 in 5.0 mi East 11.5 mph - N/A   Overcast
3:27 AM 61.0 °F 60.1 °F 97% 30.13 in 4.0 mi East 9.2 mph - N/A   Overcast
3:36 AM 60.1 °F 59.0 °F 96% 30.13 in 2.5 mi East 10.4 mph - N/A   Overcast
3:46 AM 60.1 °F 59.0 °F 96% 30.13 in 1.0 mi East 11.5 mph - N/A   Overcast
3:53 AM 60.1 °F 59.0 °F 96% 30.13 in 1.0 mi East 10.4 mph - N/A   Overcast
4:06 AM 61.0 °F 60.1 °F 97% 30.13 in 3.0 mi East 10.4 mph - N/A   Overcast
4:39 AM 61.0 °F 60.1 °F 97% 30.13 in 5.0 mi East 11.5 mph - N/A   Overcast
4:53 AM 61.0 °F 60.1 °F 97% 30.13 in 5.0 mi East 9.2 mph - N/A   Overcast
5:13 AM 61.0 °F 60.1 °F 97% 30.13 in 5.0 mi East 9.2 mph - N/A   Overcast
5:25 AM 61.0 °F 60.1 °F 97% 30.13 in 6.0 mi ENE 6.9 mph - N/A   Overcast
5:53 AM 62.1 °F 60.1 °F 93% 30.13 in 6.0 mi ENE 6.9 mph - N/A   Overcast
6:53 AM 62.1 °F 61.0 °F 96% 30.14 in 8.0 mi ENE 5.8 mph - N/A   Overcast
7:53 AM 63.0 °F 62.1 °F 97% 30.15 in 7.0 mi East 6.9 mph - N/A   Overcast
8:02 AM 64.0 °F 62.1 °F 93% 30.15 in 7.0 mi East 8.1 mph - N/A   Overcast
8:11 AM 64.0 °F 62.1 °F 93% 30.16 in 9.0 mi East 8.1 mph - N/A   Overcast
8:53 AM 64.9 °F 63.0 °F 93% 30.16 in 10.0 mi East 9.2 mph - N/A   Overcast
9:30 AM 66.0 °F 64.0 °F 93% 30.16 in 4.0 mi East 11.5 mph - N/A   Overcast
9:53 AM 64.9 °F 64.0 °F 97% 30.16 in 2.0 mi East 12.7 mph - N/A   Overcast
10:21 AM 66.0 °F 64.0 °F 93% 30.16 in 5.0 mi East 12.7 mph - N/A   Overcast
10:53 AM 66.9 °F 64.9 °F 93% 30.16 in 8.0 mi ESE 13.8 mph - N/A   Overcast
11:29 AM 68.0 °F 64.9 °F 90% 30.15 in 10.0 mi East 13.8 mph - N/A   Overcast
11:53 AM 69.1 °F 64.9 °F 87% 30.14 in 10.0 mi East 11.5 mph - N/A   Overcast
12:53 PM 73.0 °F 66.9 °F 81% 30.11 in 10.0 mi East 12.7 mph - N/A   Overcast
1:53 PM 71.1 °F 66.0 °F 84% 30.08 in 10.0 mi ENE 11.5 mph - N/A   Overcast
2:53 PM 72.0 °F 66.9 °F 84% 30.06 in 10.0 mi East 9.2 mph - N/A   Overcast
3:20 PM 72.0 °F 66.9 °F 84% 30.06 in 10.0 mi East 10.4 mph - N/A   Overcast
3:53 PM 72.0 °F 66.9 °F 84% 30.06 in 9.0 mi East 12.7 mph - N/A   Overcast
4:10 PM 71.1 °F 66.9 °F 87% 30.06 in 10.0 mi East 12.7 mph - N/A   Overcast
4:53 PM 70.0 °F 66.9 °F 90% 30.06 in 10.0 mi East 11.5 mph - N/A   Overcast
5:10 PM 69.1 °F 66.0 °F 90% 30.05 in 10.0 mi East 16.1 mph 19.6 mph N/A   Overcast
5:37 PM 68.0 °F 66.0 °F 93% 30.06 in 10.0 mi East 10.4 mph - N/A   Overcast
5:53 PM 68.0 °F 66.0 °F 93% 30.06 in 10.0 mi East 12.7 mph - N/A   Overcast
6:37 PM 68.0 °F 66.0 °F 93% 30.06 in 9.0 mi East 11.5 mph - N/A   Overcast
6:53 PM 66.9 °F 66.0 °F 97% 30.06 in 6.0 mi East 12.7 mph - N/A   Overcast
7:30 PM 66.9 °F 66.0 °F 97% 30.06 in 2.5 mi East 12.7 mph - 0.00 in Rain Light Rain
7:53 PM 66.9 °F 66.0 °F 97% 30.06 in 2.5 mi East 12.7 mph - 0.00 in   Overcast
8:02 PM 66.9 °F 66.0 °F 97% 30.06 in 3.0 mi East 13.8 mph - N/A   Overcast
8:53 PM 66.9 °F 66.0 °F 97% 30.06 in 7.0 mi ESE 12.7 mph - N/A   Overcast
9:53 PM 66.9 °F 66.0 °F 97% 30.06 in 7.0 mi ESE 10.4 mph - N/A   Overcast
10:07 PM 66.9 °F 66.0 °F 97% 30.07 in 6.0 mi ESE 9.2 mph - N/A   Overcast
10:35 PM 66.9 °F 66.0 °F 97% 30.07 in 6.0 mi ESE 8.1 mph - N/A   Overcast
10:53 PM 66.9 °F 66.0 °F 97% 30.07 in 4.0 mi ESE 8.1 mph - N/A   Overcast
11:53 PM 69.1 °F 68.0 °F 96% 30.07 in 6.0 mi SE 10.4 mph - N/A   Overcast